Miscellaneous Local Product
Issued by NWS Hastings, NE

Home | Current Version | Previous Version | Text Only | Print | Product List | Glossary Off
Versions: 1 2 3 4 5 6 7 8 9 10 11 12 13 14 15 16 17 18 19 20 21 22 23 24 25 26 27 28 29 30 31 32 33 34 35 36 37 38 39 40 41 42 43 44 45 46 47 48 49 50

432
AXUS43 KGID 221402
MISGRI

GID CWA HOURLY WEATHER ROUNDUP
NATIONAL WEATHER SERVICE HASTINGS NE
900 AM CDT WED MAR 22 2017

NOTE: "FAIR" INDICATES FEW OR NO CLOUDS BELOW 12,000 FEET WITH NO
SIGNIFICANT WEATHER AND/OR OBSTRUCTIONS TO VISIBILITY.

...SOUTH CENTRAL NEBRASKA...

CITY           SKY/WX    TMP DP  RH WIND       PRES   REMARKS
GRAND ISLAND   CLOUDY    34  25  69 SE16      30.34F WCI  24
HASTINGS       CLOUDY    34  23  64 SE16G24   30.34F WCI  24
KEARNEY        CLOUDY    36  21  55 SE18      30.31F WCI  25
ORD            CLOUDY    32  24  72 SE10      30.31R WCI  24
YORK           CLOUDY    34  23  64 SE10      30.38S WCI  26
AURORA         MOSUNNY   34  23  65 SE14      30.35F WCI  24
LEXINGTON      CLOUDY    35  24  63 SE14      30.28F WCI  26
HOLDREGE       CLOUDY    34  23  64 E17       30.30F WCI  23
HEBRON         SUNNY     35  25  66 E10       30.37F WCI  27

...NEBRASKA PANHANDLE...

CITY           SKY/WX    TMP DP  RH WIND       PRES   REMARKS
CHADRON        CLOUDY    40  31  70 S16G25    29.98F WCI  31
ALLIANCE       CLOUDY    34  30  85 S24G31    30.05F WCI  21
SCOTTSBLUFF    CLOUDY    38  28  67 SE16      30.05S WCI  29
SIDNEY         CLOUDY    35  31  85 S25       30.10S WCI  23

...WESTERN AND NORTH CENTRAL NEBRASKA...

CITY           SKY/WX    TMP DP  RH WIND       PRES   REMARKS
VALENTINE      CLOUDY    32  25  75 S20G28    30.17F WCI  20
AINSWORTH      CLOUDY    31  28  90 S24G31    30.20F WCI  18
ONEILL         CLOUDY    31  27  84 SE18      30.30S WCI  19
BROKEN BOW     CLOUDY    33  27  78 SE16G24   30.26F WCI  23
IMPERIAL       CLOUDY    35  24  64 SE14G23   30.19F WCI  26
NORTH PLATTE   CLOUDY    36  23  59 SE13      30.23F WCI  27
MCCOOK         CLOUDY    37  25  61 SE14      30.27R WCI  28

...EASTERN NEBRASKA...

CITY           SKY/WX    TMP DP  RH WIND       PRES   REMARKS
NORFOLK        CLOUDY    29  23  78 SE13      30.38R WCI  19
SO SIOUX CITY  CLOUDY    31  19  61 SE10      30.43S WCI  22
TEKAMAH        CLOUDY    32  20  61 SE12      30.43S WCI  23
COLUMBUS       CLOUDY    32  19  59 E10       30.41R WCI  24
ALBION           N/A    N/A N/A N/A MISG        N/A
OMAHA EPPLEY   CLOUDY    33  19  56 SE12      30.43S WCI  24
OFFUTT AFB     LGT RAIN  33  22  65 E9        30.41F WCI  25
MILLARD        CLOUDY    34  24  65 E8        30.42S WCI  27
LINCOLN        MOSUNNY   35  20  54 E9        30.42R WCI  28
NEBRASKA CITY  CLOUDY    35  14  42 E13       30.39F WCI  26
BEATRICE       SUNNY     37  24  60 E8        30.39R WCI  30
FALLS CITY     CLOUDY    37  20  50 E12       30.38F WCI  29

...NORTHERN KANSAS...

CITY           SKY/WX    TMP DP  RH WIND       PRES   REMARKS
GOODLAND       CLOUDY    37  31  78 S16       30.19F WCI  28
HILL CITY      CLOUDY    39  26  59 E8        30.29R WCI  33
NORTON         CLOUDY    36  21  55 E10       30.27S WCI  28
PHILLIPSBURG   CLOUDY    37  27  65 E10       30.32S WCI  30
HAYS             N/A     41  25  53 E9        30.28F
RUSSELL        CLOUDY    41  25  53 E13       30.27R
CONCORDIA      SUNNY     38  26  62 E12       30.33S WCI  30
SALINA         SUNNY     44  25  47 E9        30.31S
TOPEKA         PTSUNNY   40  25  55 E14       30.33F WCI  32



USA.gov is the U.S. government's official web portal to all federal, state and local government web resources and services.